Location: Unspecified
(0.0000°N, 0.0000°E)
Time: 04:12:00
(UTC+00:00)

SKYMED 2 - Visible Passes

Search period start: 23 January 2018 00:00
Search period end: 02 February 2018 00:00
Orbit: 621 x 623 km, 97.9° (Epoch: 22 January)

Date Brightness Start Highest point End Pass type
(mag) Time Alt. Az. Time Alt. Az. Time Alt. Az.
23 Jan 4.9 05:19:03 10° SSE 05:23:09 42° ENE 05:27:13 10° N visible
24 Jan 3.7 05:36:47 10° SSE 05:41:08 79° ENE 05:45:26 10° N visible
26 Jan 6.7 04:40:15 10° E 04:41:12 11° ENE 04:42:08 10° ENE visible
27 Jan 6.2 04:56:02 10° SE 04:59:09 19° ENE 05:02:15 10° NNE visible
27 Jan 6.6 18:42:02 10° NW 18:43:57 13° WNW 18:45:54 10° WSW visible
28 Jan 5.3 05:13:11 10° SE 05:17:08 34° ENE 05:21:03 10° NNE visible
29 Jan 4.1 05:30:48 10° SSE 05:35:06 64° ENE 05:39:22 10° N visible
01 Feb 6.4 04:50:28 10° ESE 04:53:07 16° ENE 04:55:45 10° NE visible
01 Feb 6.5 18:35:20 10° NW 18:37:56 16° WNW 18:40:31 10° WSW visible
